Home > Time Zones > World Clock > Weather > Peru > Cuzco > Past weeks

Flag for Peru Weather past 2 weeks in Cuzco, Cusco, Peru

Now
55 °F

Passing clouds.


Feels Like: 54 °F
Forecast: 39 / 60 °F
Wind: 7 mph from Southeast

Location: Cuzco Airport

Current Time: Aug 29, 2014 at 7:45:24 PM

Latest Report: Aug 29, 2014 at 7:00 PM


Visibility: N/A

Pressure: 30.45 "Hg

Humidity: 47%

Dew point: 36 °F

Location of CuzcoLocation

Historic Weather in Cuzco — Graph

°F

Cuzco temperature yesterday

Maximum temperature yesterday: 66 °F (at 12:00 PM)
Minimum temperature yesterday: 41 °F (at 2:00 AM)
Average temperature yesterday: 53 °F

Past Weeks' High & Low Weather Summary

 TemperatureHumidityPressure
High72 °F (Aug 17, 2:00 PM)100% (Aug 22, 10:00 PM)30.69 "Hg (Aug 22, 10:00 PM)
Low30 °F (Aug 20, 4:00 AM)7% (Aug 23, 3:00 PM)30.15 "Hg (Aug 27, 3:00 PM)
Average51 °F47%30.48 "Hg
* Reported Aug 14 6:00 PM — Aug 29 6:00 PM, Cuzco, Weather by CustomWeather, © 2014

Note: Actual official high and low records may vary slightly from our data, if they occured in-between our weather recording intervals... More about our weather records

Advertising

Cuzco weather history for previous 24 hours

 ConditionsComfort  
Time TempWeatherWind HumidityBarometerVisibility
6:00 PM
Aug 29
57 °FPassing clouds.10 mph44%30.42 "HgN/A
5:00 PM61 °FScattered clouds.8 mph39%30.39 "HgN/A
4:00 PM63 °FScattered clouds.6 mph32%30.39 "HgN/A
2:00 PM63 °FBroken clouds.3 mph32%30.42 "HgN/A
1:00 PM64 °FBroken clouds.3 mph30%30.45 "HgN/A
12:00 PM61 °FBroken clouds.2 mph36%30.51 "HgN/A
11:00 AM59 °FBroken clouds.7 mph39%30.51 "HgN/A
10:00 AM57 °FScattered clouds.No wind44%30.57 "HgN/A
9:00 AM54 °FBroken clouds.3 mph51%30.57 "HgN/A
8:00 AM52 °FBroken clouds.7 mph54%30.54 "HgN/A
7:00 AM48 °FBroken clouds.5 mph62%30.54 "HgN/A
6:00 AM48 °FBroken clouds.8 mph62%30.51 "HgN/A
5:00 AM50 °FPassing clouds.7 mph62%30.48 "HgN/A
4:00 AM48 °FPassing clouds.3 mph66%30.48 "HgN/A
3:00 AM50 °FPassing clouds.5 mph62%30.48 "HgN/A
2:00 AM50 °FPassing clouds.5 mph62%30.48 "HgN/A
1:00 AM48 °FPassing clouds.5 mph62%30.51 "HgN/A
12:00 AM46 °FPassing clouds.5 mph66%30.51 "HgN/A
11:00 PM
Aug 28
45 °FPassing clouds.5 mph71%30.51 "HgN/A
10:00 PM48 °FPassing clouds.1 mph62%30.48 "HgN/A
9:00 PM54 °FPassing clouds.3 mph51%30.48 "HgN/A
8:00 PM55 °FPassing clouds.No wind51%30.45 "HgN/A
7:00 PM57 °FPassing clouds.5 mph48%30.42 "HgN/A
Weather by CustomWeather, © 2014

See weather overviewHow to use our weather pages